[[{"header":{"parameterUnit":"m.s-1","parameterCategory":1,"la1":30.2991,"la2":30.254,"lo1":-89.0895,"lo2":-89.0444,"dy":0.0017,"dx":0.0017,"nx":28,"ny":28,"refTime":"2024-07-30T21:00:00:Z","depth":0,"parameterNumber":2,"parameterNumberName":"U-component_of_WINDS"},"data":[0,0,0,0,0,0,0,0,0,0,0,0,0,0,0,0,0,0,0,0,0,0,0,0,0,0,0,0,0,0,0,0,0,0,0,0,0,0,0,0,0,0,0,0,0,0,0,0,0,0,0,0,0,0,0,0,0,0,2.4395,2.4395,0,2.4389,2.4389,2.4389,2.4342,2.4341,2.434,2.4339,2.4333,2.4334,2.4335,0,0,0,0,0,0,0,0,0,0,0,0,0,2.4368,2.4369,2.4395,2.4395,2.4395,2.4389,2.4389,2.4389,2.4342,2.4341,2.4339,2.4338,2.4333,2.4334,2.4335,0,0,0,0,0,0,0,0,0,0,0,0,0,2.4373,2.4369,2.4395,2.4371,2.4369,2.4389,2.4389,2.4389,2.4343,2.4341,2.4339,2.4337,2.4332,2.4334,2.4335,2.4378,0,0,2.4339,2.434,0,0,0,0,0,0,0,0,2.4372,2.4374,2.4374,2.4372,2.437,2.4364,2.4377,2.4385,2.4343,2.4352,2.4339,2.4337,2.4345,2.4345,2.4348,2.4378,2.4378,2.434,2.434,2.4341,2.4341,0,0,0,0,0,0,0,2.4372,2.4374,2.4392,2.4374,2.4372,2.4361,2.436,2.4379,2.4358,2.4351,2.4348,2.4348,2.4343,2.4347,2.4347,2.4378,2.4339,2.4341,2.4342,2.4342,2.4445,2.4447,0,0,0,0,0,0,2.4375,2.4374,2.4393,2.4392,2.4367,2.4363,2.4361,2.4368,2.4358,2.4355,2.4349,2.4346,2.4345,2.4346,2.4347,2.4399,2.4341,2.4342,2.4343,2.4444,2.4446,2.4448,0,0,0,0,0,0,2.4375,2.4377,2.4393,2.4382,2.4383,2.4365,2.4373,2.4369,2.4372,2.4357,2.4353,2.4356,2.4344,2.4345,2.4371,2.4398,2.4343,2.4344,2.4441,2.4444,2.4447,2.4501,0,0,0,0,0,0,2.4374,2.4377,2.4393,2.4383,2.4384,2.4417,2.4374,2.437,2.4374,2.437,2.4362,2.4359,2.4343,2.437,2.4373,2.4399,2.4345,2.4439,2.4443,2.4446,2.4497,2.4506,2.4513,0,0,0,0,0,2.4373,2.4408,2.4394,2.4396,2.4403,2.4418,2.4419,2.4399,2.4377,2.4393,2.4383,2.4359,2.4394,2.4373,2.4376,2.4403,2.4437,2.4442,2.4446,2.4493,2.4504,2.4513,0,0,0,0,0,0,2.4421,2.4406,2.439,2.4422,2.4422,2.441,2.443,2.441,2.4417,2.4412,2.4387,2.4386,2.4416,2.4412,2.4388,2.4445,2.4412,2.4417,2.4447,2.4457,2.4465,2.4465,2.4346,0,0,0,0,0,2.4435,2.4449,2.4435,2.4465,2.4466,2.4448,2.4454,2.4439,2.4437,2.4437,2.4429,2.4429,2.444,2.4448,2.4457,2.4496,2.4495,2.4516,2.4524,2.4531,2.4536,2.4558,2.4568,2.4462,2.4462,2.4462,0,0,2.4465,2.4459,2.4468,2.4474,2.4472,2.4488,2.4448,2.4465,2.4477,2.444,2.4464,2.4459,2.4457,2.4491,2.4505,2.4488,2.4565,2.4536,2.4542,2.4543,2.4564,2.4574,2.4583,2.4465,2.4465,2.4464,0,0,2.4527,2.4523,2.4549,2.4548,2.4545,2.4534,2.454,2.4532,2.4527,2.4552,2.4525,2.4538,2.4557,2.4558,2.4561,2.4626,2.4605,2.4629,2.4671,2.4694,2.4702,2.4709,2.4734,2.4743,2.4634,2.4635,2.4635,0,2.4565,2.4586,2.4564,2.4584,2.4588,2.4556,2.4582,2.4583,2.4583,2.4588,2.4568,2.4593,2.459,2.4624,2.464,2.4643,2.4651,2.463,2.4702,2.471,2.4716,2.474,2.4749,2.4638,2.4637,2.4637,2.4637,0,2.4633,2.4649,2.467,2.4672,2.4679,2.4702,2.4684,2.4694,2.4679,2.467,2.4696,2.4691,2.47,2.4707,2.4691,2.474,2.4729,2.4707,2.4673,2.473,2.4752,2.476,2.4642,2.4641,2.464,2.4639,0,0,2.4725,2.4716,2.4724,2.4726,2.4722,2.4734,2.4756,2.4765,2.4775,2.4777,2.4796,2.4814,2.4794,2.4797,2.4782,2.4801,2.4856,2.4777,2.4776,2.4793,2.4911,2.4929,2.494,2.4842,2.4843,2.4845,2.4912,0,2.4786,2.4824,2.4806,2.4846,2.4861,2.4831,2.4851,2.4852,2.4844,2.4857,2.4848,2.4862,2.4833,2.4836,2.4853,2.4845,2.4879,2.484,2.4861,2.4862,2.4863,2.4951,2.4969,2.5033,2.492,2.4921,2.4922,0,2.4863,2.4869,2.4911,2.4906,2.4912,2.493,2.4938,2.495,2.495,2.4943,2.4948,2.4929,2.4952,2.4918,2.4951,2.4924,2.4932,2.493,2.4931,2.4933,2.4896,2.4957,2.5052,2.5062,2.4935,2.4934,2.4933,0,2.4928,2.4947,2.4975,2.4977,2.4971,2.4985,2.4984,2.4982,2.4989,2.4996,2.5001,2.501,2.5016,2.5024,2.5009,2.4985,2.5044,2.5008,2.504,2.5041,2.5055,2.5054,2.5154,2.5057,2.5057,2.5057,2.5057,0,2.4999,2.5026,2.5004,2.5022,2.5052,2.5031,2.5062,2.5057,2.5057,2.5074,2.5048,2.5065,2.5043,2.5057,2.5045,2.5075,2.5077,2.5074,2.507,2.5077,2.5077,2.5082,2.5078,2.506,2.5059,2.5059,2.5058,0,2.5077,2.5063,2.5092,2.5085,2.5084,2.5107,2.5101,2.5118,2.5109,2.5131,2.5135,2.5121,2.5138,2.5123,2.5138,2.513,2.517,2.516,2.5171,2.5168,2.5202,2.52,2.5309,2.5324,2.5216,2.5217,2.5218,0,2.5124,2.5144,2.514,2.515,2.515,2.5165,2.5173,2.5154,2.5163,2.5166,2.5183,2.5197,2.5207,2.5235,2.5227,2.5239,2.523,2.5267,2.5231,2.5238,2.5232,2.5232,2.5235,2.5275,2.5276,2.5277,2.5278,0,2.521,2.5202,2.5214,2.5224,2.5234,2.5241,2.5246,2.5255,2.5236,2.5248,2.5264,2.5273,2.5289,2.5304,2.5314,2.5313,2.5293,2.529,2.5298,2.5305,2.5311,2.531,2.5192,2.5287,2.5286,2.5286,2.5285,2.5285,2.5275,2.5292,2.5293,2.5307,2.5309,2.5315,2.5331,2.5325,2.5338,2.535,2.5338,2.5359,2.536,2.5372,2.5374,2.539,2.5374,2.5386,2.5389,2.5393,2.5399,2.5308,2.5392,2.5391,2.5391,2.5391,2.5391,0,2.5361,2.536,2.5373,2.5382,2.5394,2.5374,2.5379,2.5391,2.5409,2.5412,2.5423,2.5444,2.5459,2.5452,2.5466,2.548,2.5472,2.5485,2.5484,2.5485,2.5411,2.5403,2.5492,2.5492,2.5492,2.5492,2.5492,2.5492,2.5407,2.5436,2.5429,2.5461,2.5459,2.548,2.5485,2.549,2.5493,2.5517,2.5529,2.5525,2.5525,2.5539,2.5552,2.555,2.5557,2.5573,2.5568,2.55,2.549,2.548,2.5473,2.5574,2.5575,2.5641,2.5641,2.5642]},{"header":{"parameterUnit":"m.s-1","parameterCategory":1,"la1":30.2991,"la2":30.254,"lo1":-89.0895,"lo2":-89.0444,"dy":0.0017,"dx":0.0017,"nx":28,"ny":28,"refTime":"2024-07-30T21:00:00:Z","depth":0,"parameterNumber":3,"parameterNumberName":"V-component_of_WINDS"},"data":[0,0,0,0,0,0,0,0,0,0,0,0,0,0,0,0,0,0,0,0,0,0,0,0,0,0,0,0,0,0,0,0,0,0,0,0,0,0,0,0,0,0,0,0,0,0,0,0,0,0,0,0,0,0,0,0,0,0,-2.1354,-2.1354,0,-2.1331,-2.1331,-2.1331,-2.1304,-2.1304,-2.1303,-2.1303,-2.1278,-2.1278,-2.1278,0,0,0,0,0,0,0,0,0,0,0,0,0,-2.1374,-2.1373,-2.1354,-2.1354,-2.1353,-2.1331,-2.1331,-2.1331,-2.1304,-2.1304,-2.1303,-2.1303,-2.1278,-2.1278,-2.1278,0,0,0,0,0,0,0,0,0,0,0,0,0,-2.1359,-2.1373,-2.1354,-2.1338,-2.1336,-2.1332,-2.1331,-2.1331,-2.1304,-2.1304,-2.1303,-2.1303,-2.1278,-2.1278,-2.1278,-2.1287,0,0,-2.1276,-2.1276,0,0,0,0,0,0,0,0,-2.136,-2.1359,-2.134,-2.1339,-2.1337,-2.132,-2.1329,-2.1316,-2.1305,-2.1316,-2.1303,-2.1302,-2.1293,-2.1291,-2.1288,-2.1286,-2.1285,-2.1276,-2.1276,-2.1276,-2.1276,0,0,0,0,0,0,0,-2.1361,-2.136,-2.1345,-2.134,-2.1338,-2.1331,-2.1328,-2.1326,-2.1308,-2.1315,-2.1313,-2.1311,-2.1291,-2.1288,-2.1287,-2.1285,-2.1276,-2.1276,-2.1276,-2.1276,-2.1292,-2.1292,0,0,0,0,0,0,-2.1365,-2.1361,-2.1346,-2.1344,-2.1347,-2.1331,-2.1328,-2.1326,-2.1308,-2.1305,-2.1312,-2.131,-2.1289,-2.1288,-2.1286,-2.1298,-2.1276,-2.1275,-2.1275,-2.1291,-2.1292,-2.1292,0,0,0,0,0,0,-2.1365,-2.1364,-2.1347,-2.1352,-2.1349,-2.1332,-2.1329,-2.1326,-2.1323,-2.1305,-2.1302,-2.1312,-2.1289,-2.1287,-2.1288,-2.1297,-2.1275,-2.1275,-2.129,-2.1291,-2.1292,-2.132,0,0,0,0,0,0,-2.1366,-2.1364,-2.1368,-2.1352,-2.1349,-2.1349,-2.133,-2.1326,-2.1322,-2.132,-2.1305,-2.1302,-2.1288,-2.1289,-2.1287,-2.1296,-2.1275,-2.1289,-2.1291,-2.1292,-2.1319,-2.1322,-2.1325,0,0,0,0,0,-2.1367,-2.1376,-2.1368,-2.1366,-2.1353,-2.1349,-2.1347,-2.1333,-2.1323,-2.1327,-2.1316,-2.1302,-2.1296,-2.1289,-2.1287,-2.1296,-2.1289,-2.129,-2.1292,-2.1317,-2.1322,-2.1325,0,0,0,0,0,0,-2.1391,-2.1373,-2.1364,-2.1369,-2.1361,-2.1345,-2.1349,-2.1337,-2.1332,-2.1329,-2.1311,-2.1307,-2.1311,-2.1303,-2.1296,-2.1305,-2.129,-2.1292,-2.131,-2.1314,-2.1318,-2.132,-2.1274,0,0,0,0,0,-2.1397,-2.1396,-2.138,-2.1385,-2.1382,-2.1366,-2.1364,-2.1353,-2.1344,-2.1341,-2.1329,-2.1321,-2.1317,-2.1315,-2.131,-2.1317,-2.1314,-2.1322,-2.1326,-2.1328,-2.133,-2.1335,-2.1339,-2.1297,-2.1297,-2.1297,0,0,-2.141,-2.14,-2.14,-2.139,-2.1383,-2.1382,-2.1363,-2.1363,-2.1363,-2.134,-2.1341,-2.1333,-2.1322,-2.1327,-2.1328,-2.132,-2.1341,-2.133,-2.1333,-2.1333,-2.1337,-2.1341,-2.1344,-2.1299,-2.1298,-2.1298,0,0,-2.1432,-2.1424,-2.1428,-2.1422,-2.1411,-2.1401,-2.1402,-2.1388,-2.1382,-2.1383,-2.1367,-2.1366,-2.1359,-2.1353,-2.1349,-2.1371,-2.1359,-2.137,-2.1388,-2.1393,-2.1396,-2.1399,-2.1408,-2.1412,-2.1371,-2.1371,-2.1371,0,-2.1448,-2.1447,-2.1431,-2.1433,-2.143,-2.1411,-2.1415,-2.1409,-2.1398,-2.1396,-2.1388,-2.1381,-2.1372,-2.1376,-2.1381,-2.1378,-2.138,-2.1372,-2.1397,-2.14,-2.1402,-2.1411,-2.1414,-2.1373,-2.1373,-2.1372,-2.1372,0,-2.1468,-2.1468,-2.1472,-2.1464,-2.1461,-2.1464,-2.1449,-2.1448,-2.1438,-2.1429,-2.1431,-2.142,-2.1414,-2.1413,-2.1403,-2.1416,-2.1412,-2.14,-2.1385,-2.1408,-2.1416,-2.1419,-2.1375,-2.1374,-2.1374,-2.1374,0,0,-2.1505,-2.1489,-2.1491,-2.1487,-2.1475,-2.1475,-2.1477,-2.1472,-2.1472,-2.1465,-2.1468,-2.1463,-2.1454,-2.1449,-2.1438,-2.1442,-2.1462,-2.143,-2.1429,-2.1438,-2.1478,-2.1488,-2.1492,-2.1454,-2.1454,-2.1455,-2.148,0,-2.1526,-2.153,-2.1517,-2.1525,-2.1525,-2.1507,-2.151,-2.1503,-2.1495,-2.1494,-2.1484,-2.1482,-2.1468,-2.1466,-2.1469,-2.1459,-2.147,-2.1457,-2.1457,-2.1457,-2.1461,-2.1496,-2.1506,-2.153,-2.1483,-2.1483,-2.1484,0,-2.1551,-2.1547,-2.1555,-2.1545,-2.1544,-2.1547,-2.1542,-2.1541,-2.1533,-2.1527,-2.1523,-2.1511,-2.1513,-2.1498,-2.1502,-2.1493,-2.1492,-2.1487,-2.1488,-2.1488,-2.1472,-2.1499,-2.1537,-2.1542,-2.1488,-2.1488,-2.1487,0,-2.1579,-2.1575,-2.158,-2.1578,-2.1565,-2.1568,-2.1562,-2.1554,-2.1552,-2.1548,-2.1547,-2.1543,-2.1541,-2.1538,-2.1525,-2.1515,-2.1531,-2.1515,-2.1527,-2.1527,-2.1531,-2.1531,-2.1572,-2.1528,-2.1528,-2.1528,-2.1528,0,-2.1605,-2.1611,-2.1593,-2.1596,-2.1603,-2.1588,-2.1595,-2.1588,-2.1581,-2.1583,-2.1566,-2.1568,-2.1551,-2.1551,-2.154,-2.1546,-2.1545,-2.154,-2.1538,-2.1543,-2.1543,-2.1543,-2.1541,-2.1529,-2.1529,-2.1529,-2.1529,0,-2.1637,-2.1626,-2.163,-2.1619,-2.1616,-2.1621,-2.1611,-2.1614,-2.1605,-2.1608,-2.1608,-2.1594,-2.1593,-2.158,-2.1576,-2.1569,-2.158,-2.1573,-2.1583,-2.1581,-2.1595,-2.1594,-2.1637,-2.1642,-2.1595,-2.1595,-2.1595,0,-2.1655,-2.166,-2.1649,-2.165,-2.1646,-2.1646,-2.1645,-2.1631,-2.163,-2.1623,-2.1627,-2.1625,-2.1624,-2.1624,-2.1613,-2.1611,-2.1605,-2.162,-2.1605,-2.161,-2.1608,-2.1608,-2.1609,-2.1624,-2.1625,-2.1625,-2.1625,0,-2.1689,-2.1683,-2.1682,-2.168,-2.168,-2.1677,-2.1673,-2.1675,-2.1659,-2.1659,-2.1659,-2.1658,-2.1655,-2.1655,-2.1651,-2.1645,-2.1633,-2.163,-2.1633,-2.1639,-2.1645,-2.1644,-2.1593,-2.163,-2.1629,-2.1629,-2.1629,-2.1629,-2.1715,-2.1719,-2.1713,-2.1714,-2.171,-2.1707,-2.171,-2.1702,-2.1702,-2.1699,-2.169,-2.1693,-2.1686,-2.168,-2.1676,-2.1677,-2.167,-2.1673,-2.1675,-2.1676,-2.168,-2.1644,-2.1676,-2.1676,-2.1676,-2.1676,-2.1676,0,-2.1749,-2.1745,-2.1746,-2.1742,-2.1742,-2.1732,-2.1727,-2.1729,-2.1731,-2.1726,-2.1725,-2.1726,-2.1726,-2.1716,-2.1715,-2.1718,-2.1713,-2.1718,-2.1718,-2.1718,-2.1686,-2.1684,-2.1723,-2.1723,-2.1723,-2.1723,-2.1723,-2.1723,-2.1767,-2.1774,-2.1768,-2.1774,-2.1769,-2.1772,-2.177,-2.1768,-2.1765,-2.1767,-2.1767,-2.1761,-2.1755,-2.1753,-2.1752,-2.1749,-2.175,-2.1758,-2.1754,-2.1724,-2.172,-2.1715,-2.1714,-2.1758,-2.1758,-2.1786,-2.1786,-2.1787]}]]